Regional Weather Roundup
Issued by NWS

Home | Current Version | Previous Version | Text Only | Print | Product List | Glossary On
Versions: 1 2 3 4 5 6 7 8 9 10 11 12 13 14 15 16 17 18 19 20 21 22 23 24 25 26 27 28 29 30 31 32 33 34 35 36 37 38 39 40 41 42 43 44 45 46 47 48 49 50
695
ASHW40 PHFO 140443
RWRHI

WEATHER ROUNDUP FOR HAWAII
NATIONAL WEATHER SERVICE HONOLULU HI
600 PM HST WED DEC 13 2017

THIS IS AN AUTOMATED REPORT THAT HAS NOT BEEN QUALITY CONTROLLED.

NOTE..."FAIR" INDICATES FEW OR NO CLOUDS BELOW 12,000 FEET WITH NO
SIGNIFICANT WEATHER AND/OR OBSTRUCTIONS TO VISIBILITY.

* - THESE SITES REPORT LIMITED FIELDS
# - BUOY DATA PROVIDED BY PACIFIC ISLANDS OCEAN OBSERVING SYSTEM.

HIZ001>004-140500-
KAUAI-NIIHAU-

CITY           SKY/WX    TMP DP  RH WIND       PRES   REMARKS
LIHUE APT      MOCLDY    67  58  72 N15       30.07R
PORT ALLEN*      N/A     73 N/A N/A NE13        N/A
POIPU*           N/A     73 N/A N/A NE5G14      N/A
PRINCEVILLE*   NOT AVBL
KOKOLE POINT*  NOT AVBL
MOLOAA DAIRY*    N/A     70  57  64 N3G10       N/A
WAIMEA HTS*      N/A     70  52  52 N5G14       N/A
PUU OPAE*        N/A     61  52  72 NE9G17      N/A
PUU LUA*       NOT AVBL
MAKAHA RIDGE*    N/A     61  55  82 N6G18       N/A
$$

HIZ005>011-140500-
OAHU-

CITY           SKY/WX    TMP DP  RH WIND       PRES   REMARKS
HONOLULU       PTCLDY    74  56  53 N9        30.01R
KALAELOA       CLEAR     71  57  61 NE9       30.03R
KANEOHE MCB    CLEAR     72  59  63 N21       30.01R
WHEELER FIELD  PTCLDY    66  57  72 N8        30.05R
BELLOWS*         N/A    N/A N/A N/A N14G22      N/A
KAHUKU*          N/A    N/A N/A N/A NE5G10      N/A
WHEELER*         N/A    N/A N/A N/A N8G16       N/A
WAIANAE HARBOR   N/A    N/A N/A N/A W2G10       N/A
DILLINGHAM*    NOT AVBL
KAHUKU TRN*      N/A     70  57  64 SW7G16      N/A
KAWAILOA*        N/A     64  55  72 NE7G15      N/A
KII*             N/A     72  59  64 NE13G18     N/A
MAKUA RANGE*     N/A     75  61  60 W16G26      N/A
OAHU FOREST NW   N/A     63  55  77 NE10G26     N/A
SCHOFIELD BRK*   N/A     64  55  72 MISG        N/A
SCHOFIELD S*   NOT AVBL
WAIANAE VLY*     N/A     66  55  68 W5G18       N/A
KUAOKALA*        N/A     66  57  72 N30G39      N/A
HONOULIUULI*   NOT AVBL
MOKUOLOE IS*   NOT AVBL
PALEHUA*         N/A     57  54  88 N12G30      N/A
WAIAWA PHB*    NOT AVBL
$$

HIZ012>013-140500-
MOLOKAI-

CITY           SKY/WX    TMP DP  RH WIND       PRES   REMARKS
MOLOKAI AIRPT  PTCLDY    70  57  63 N9        30.02R
KALAUPAPA      NOT AVBL
MAKAPULAPAI*     N/A     72  59  64 NE14        N/A
MOLOKAI 1*       N/A     59 N/A N/A N8          N/A
PUU ALII*        N/A     51  51 100 NE2G8       N/A
$$

HIZ016-140500-
KAHOOLAWE-

CITY           SKY/WX    TMP DP  RH WIND       PRES   REMARKS
KAHOOLAWE*     NOT AVBL
HAKIOAWA*        N/A     68  61  77 MISG        N/A
HONOKANAIA*    NOT AVBL
KANELOA*         N/A     72  57  60 N18G32    30.02S
KEALIALALO*    NOT AVBL
LUA MAKIKA*    NOT AVBL
$$

HIZ014>015-140500-
LANAI-

CITY           SKY/WX    TMP DP  RH WIND       PRES   REMARKS
LANAI CITY     FAIR      65  56  72 NE23G30   30.02R
LANAI 1*       NOT AVBL
$$

HIZ017>028-140500-
MAUI-

CITY           SKY/WX    TMP DP  RH WIND       PRES   REMARKS
KAHULUI        MOCLDY    74  61  63 N14       30.01R
KAPALUA-W MAUI PTCLDY    72  57  60 N15G23    30.01
HANA AIRPORT   CLOUDY    66  66 100 W5        30.05R
HANA*            N/A     68 N/A N/A W5          N/A
HALEAKALA SUMM   N/A     39 -13  10 NW25        N/A  WCI  28
MAALAEA BAY*     N/A     72 N/A N/A N12G17      N/A
HALEAKALA*     NOT AVBL
KAUPO GAP*     NOT AVBL
KULA 1*          N/A    N/A N/A N/A NE3         N/A
$$

HIZ023>026-140500-
BIG ISLAND OF HAWAII COAST AND LOWER SLOPES-

CITY           SKY/WX    TMP DP  RH WIND       PRES   REMARKS
KAILUA KONA    PTCLDY    78  59  51 NE17      29.91S
HILO           CLOUDY    70  66  88 NW9       30.00S
HONOKAA*         N/A     64 N/A N/A VRB1        N/A
KAWAIHAE MWT*    N/A     82 N/A N/A SE2         N/A
KAWAIHAE*        N/A     79 N/A N/A NE9       29.93R
SOUTH POINT*     N/A     70 N/A N/A N6          N/A
UPOLU AIRPORT* NOT AVBL
KAMUELA*       MOCLDY    61  59  94 NE17      30.06S
HAKALAU*         N/A     48  46  93 W3          N/A
KALOKO-HONOKO*   N/A     75  64  69 SE5       29.91S
PALI 2*          N/A     63  57  82 S15G26      N/A
KEALAKOMO*       N/A    N/A N/A N/A NW25G44     N/A
KAUPULEHU*       N/A     70  57  64 NE6G18      N/A
KAPAPALA*        N/A     67  63  87 NW1G7       N/A
LOWER KAHUKU*    N/A    N/A N/A N/A W1          N/A
PUHE CS*         N/A     81  63  54 SW2         N/A
PUHO CS*         N/A     79  68  69 S2          N/A
PTA KEAMUKU*     N/A     59  55  88 E16G25      N/A
WAIKOLOA*        N/A     68  59  73 E17G30      N/A
$$

HIZ027>028-140500-
BIG ISLAND OF HAWAII INTERIOR AND SUMMMITS-

CITY           SKY/WX    TMP DP  RH WIND       PRES   REMARKS
BRADSHAW FIELD NOT AVBL
MK VISITOR CEN   N/A     43   7  22 W5          N/A
MAUNA KEA*       N/A     28 -17  13 W38G54      N/A  WCI  11
MAUNA LOA*       N/A     36  -6  17 MISG        N/A
MAUNA LOA 1*   NOT AVBL
PTA KIPUKA*      N/A     64  50  59 SW1         N/A
PTA RANGE 17*    N/A     55  48  76 E3G9        N/A
PTA WEST*        N/A     66  57  72 S1G8        N/A
NENE CABIN*      N/A     50  50 100 NE1         N/A
AHUMOA*          N/A     48   1  14 E8          N/A
PTA PORTABLE*  NOT AVBL
PUU MALI*        N/A     45  37  76 S6          N/A
$$

HIC003-140500-
NORTHWEST ISLANDS-

CITY           SKY/WX    TMP DP  RH WIND       PRES   REMARKS
MIDWAY ISLAND  CLOUDY    72  61  68 S7        30.15S
MIDWAY NOS*      N/A     72 N/A N/A MISG      30.14R
FRENCH FRIGATE NOT AVBL
$$

PHZ110>124-180-140500-
BUOY REPORTS

STATION/POSITION TIME  TEMP    WIND        PRES    WAVE   SWELL
                       AIR SEA DIR/SP/G            HT/PER HT/DIR
                 (UTC) (F)     (DEG/KT/KT) (MB)    (FT/S) (FT/D)
BUOY 51001       0420   70      40/ 16/ 23 1020.4
BUOY 51101       0350   69 75   20/ 16/ 21 1020.8R  14/15  13/330
BUOY 51100       NOT AVBL
BUOY 51002       0420   77 78   40/ 16/ 19 1013.4
BUOY 51003       0350   74 78   50/ 16/ 19 1014.8R  16/16  15/330
BUOY 51004       0430   75     360/ 14/ 19 1013.5R
WAIMEA BAY#      0402      75                N/A    17/15  15/320
MOKAPU POINT#    0404      77                N/A    10/14   8/350
LANAI#           NOT AVBL
BARBERS PT 2#    NOT AVBL
PAUWELA#         0400      78                N/A    15/15  13/320
HILO#            0427      77                N/A    11/17   8/340
KANEOHE BAY#     NOT AVBL
KANEOHE BAY 2#   NOT AVBL
HANALEI#         0422      77                N/A    17/15  15/310
KAHULUI HARBOR   0412   73 77   10/ 13/ 15 1016.2
HONOLULU HARBOR  0412   71 77   10/  5/  7 1016.9
PEARL HARBOR#    0400      77                N/A     1/ 9
KILO NALU        NOT AVBL
HILO HARBOR      0412   71 75  330/ 12/ 16 1015.5
MOKUOLOE         0336   72 75   20/ 13/ 16 1016.7R
NAWILIWILI       0412   70 78  340/  5/  8 1018.2
WHOTS BUOY       NOT AVBL
BUOY 51028       NOT AVBL
$$

......................KEY........................................
  SKY/WX - SKY CONDITIONS/PRESENT WEATHER
  TMP    - TEMPERATURE IN FAHRENHEIT
  DWPT   - DEWPOINT IN FAHRENHEIT
  RH     - RELATIVE HUMIDITY IN PERCENT
  WIND   - DIRECTION AND SPEED /MPH FOR ISLANDS...KTS FOR BUOYS/
  PRES   - MEAN SEA LEVEL PRESSURE IN INCHES OF HG
  VSB    - VISIBILITY IN MILES
  HX     - HEAT INDEX
  WCI    - WIND CHILL INDEX
  VRB    - VARIABLE WIND DIRECTION
  N/A    - NOT AVAILABLE




USA.gov is the U.S. government's official web portal to all federal, state and local government web resources and services.